GW0672 Weather Reports


Display with metric or nautical units.
time (UTC)temp
F
wind
direction
speed
MPH
gust
MPH
rain 1hr
in
rain 24hr
in
rain mn
in
humidity
%
barometer
mb
20260502140112 41 356 8.0 12.0 0.00 0.00 0.00 56 1020.3
20260502130537 39 297 2.0 3.0 0.00 0.00 0.00 71 1020.5
20260502123520 38 330 3.0 3.0 0.00 0.00 0.00 75 1020.3
20260502123017 37 288 5.0 5.0 0.00 0.00 0.00 76 1020.2
20260502122513 37 282 6.0 9.0 0.00 0.00 0.00 76 1020.1
20260502122011 37 301 5.0 6.0 0.00 0.00 0.00 77 1020.5
20260502121508 37 289 4.0 6.0 0.00 0.00 0.00 78 1020.4
20260502121006 37 303 4.0 5.0 0.00 0.00 0.00 78 1020.1
20260502120502 37 303 4.0 5.0 0.00 0.00 0.00 78 1020.3
20260502115456 36 305 4.0 6.0 0.00 0.00 0.00 79 1020.2
20260502114952 36 316 3.0 5.0 0.00 0.00 0.00 80 1020.1
20260502114449 36 296 2.0 3.0 0.00 0.00 0.00 81 1020.2
20260502113946 36 271 6.0 7.0 0.00 0.00 0.00 80 1020.1
20260502113444 36 301 5.0 6.0 0.00 0.00 0.00 81 1020.1
20260502112942 36 276 5.0 6.0 0.00 0.00 0.00 81 1019.8
20260502112439 36 311 1.0 2.0 0.00 0.00 0.00 82 1019.9
20260502111937 35 288 0.0 0.0 0.00 0.00 0.00 82 1019.9
20260502111433 35 288 1.0 2.0 0.00 0.00 0.00 84 1019.6
20260502110931 34 289 2.0 3.0 0.00 0.00 0.00 87 1019.8
20260502110429 33 291 1.0 2.0 0.00 0.00 0.00 90 1020.2
20260502105926 33 289 0.0 0.0 0.00 0.00 0.00 92 1019.9
20260502105423 33 288 0.0 0.0 0.00 0.00 0.00 93 1019.9
20260502104921 33 290 0.0 0.0 0.00 0.00 0.00 94 1019.8
20260502104418 32 288 0.0 0.0 0.00 0.00 0.00 95 1020.0
20260502103915 32 288 0.0 0.0 0.00 0.00 0.00 95 1019.8
20260502103413 33 288 0.0 0.0 0.00 0.00 0.00 95 1019.8
20260502102909 33 285 0.0 0.0 0.00 0.00 0.00 95 1019.6
20260502102406 33 288 0.0 0.0 0.00 0.00 0.00 96 1019.4
20260502101903 33 288 0.0 0.0 0.00 0.00 0.00 96 1019.4
20260502101402 33 84 0.0 0.0 0.00 0.00 0.00 97 1019.4
20260502100859 33 84 0.0 0.0 0.00 0.00 0.00 97 1019.2
20260502100359 33 84 0.0 0.0 0.00 0.00 0.00 97 1019.2
20260502091332 32 84 0.0 0.0 0.00 0.00 0.00 96 1019.1
20260502090830 32 84 0.0 0.0 0.00 0.00 0.00 96 1019.0
20260502090326 32 84 0.0 0.0 0.00 0.00 0.00 96 1018.9
20260502071216 36 84 0.0 0.0 0.00 0.00 0.00 86 1018.9
20260502070715 37 84 0.0 0.0 0.00 0.00 0.00 86 1018.8
20260502070212 36 84 0.0 0.0 0.00 0.00 0.00 86 1018.9
20260502065710 37 84 0.0 0.0 0.00 0.00 0.00 86 1018.8
20260502065208 37 84 0.0 0.0 0.00 0.00 0.00 86 1018.9
20260502064706 37 84 0.0 0.0 0.00 0.00 0.00 87 1018.9
20260502064203 37 84 0.0 0.0 0.00 0.00 0.00 87 1019.0
20260502063701 37 84 0.0 0.0 0.00 0.00 0.00 86 1019.0
20260502063158 37 84 0.0 0.0 0.00 0.00 0.00 86 1019.0
20260502062650 37 84 0.0 0.0 0.00 0.00 0.00 86 1019.2
20260502062147 37 84 0.0 0.0 0.00 0.00 0.00 86 1019.1
20260502061645 37 84 0.0 0.0 0.00 0.00 0.00 85 1019.2
20260502061142 37 112 1.0 2.0 0.00 0.00 0.00 85 1019.0
20260502060637 37 103 1.0 2.0 0.00 0.00 0.00 86 1019.2
20260502060133 37 97 0.0 0.0 0.00 0.00 0.00 86 1019.1
20260502055631 37 95 0.0 2.0 0.00 0.00 0.00 86 1019.2
20260502055129 37 90 0.0 2.0 0.00 0.00 0.00 86 1019.2
20260502054628 37 127 2.0 3.0 0.00 0.00 0.00 86 1019.3
20260502054125 37 142 2.0 3.0 0.00 0.00 0.00 85 1019.4
20260502053622 37 129 0.0 0.0 0.00 0.00 0.00 85 1019.2
20260502053119 37 76 0.0 0.0 0.00 0.00 0.00 85 1019.2
20260502052618 37 74 1.0 2.0 0.00 0.00 0.00 86 1019.2
20260502052115 37 84 3.0 3.0 0.00 0.00 0.00 86 1019.3
20260502051614 37 77 2.0 3.0 0.00 0.00 0.00 86 1019.3
20260502051111 37 103 2.0 3.0 0.00 0.00 0.00 86 1019.2
20260502050607 37 78 2.0 3.0 0.00 0.00 0.00 86 1019.1
20260502050104 37 93 3.0 3.0 0.00 0.00 0.00 85 1019.0
20260502045600 38 79 1.0 2.0 0.00 0.00 0.00 85 1019.1
20260502045058 38 79 3.0 3.0 0.00 0.00 0.00 85 1019.0
20260502044554 38 82 4.0 5.0 0.00 0.00 0.00 85 1018.9
20260502044051 38 91 5.0 9.0 0.00 0.00 0.00 84 1018.9
20260502043549 39 144 3.0 5.0 0.00 0.00 0.00 83 1018.9
20260502043044 39 59 1.0 2.0 0.00 0.00 0.00 80 1018.9
20260502042539 40 43 4.0 5.0 0.00 0.00 0.00 74 1018.9
20260502042037 40 316 0.0 0.0 0.00 0.00 0.00 69 1018.8
20260502041535 41 316 2.0 2.0 0.00 0.00 0.00 66 1018.7
20260502041032 41 299 1.0 2.0 0.00 0.00 0.00 63 1018.4
20260502040528 41 300 2.0 3.0 0.00 0.00 0.00 61 1018.4
20260502040026 41 341 2.0 3.0 0.00 0.00 0.00 61 1018.6
20260502035521 41 295 1.0 2.0 0.00 0.00 0.00 59 1018.5
20260502035019 41 331 2.0 2.0 0.00 0.00 0.00 58 1018.6
20260502034517 41 294 2.0 3.0 0.00 0.00 0.00 57 1018.7
20260502034015 41 297 1.0 2.0 0.00 0.00 0.00 60 1018.5
20260502033513 41 294 2.0 3.0 0.00 0.00 0.00 60 1018.6
20260502033010 41 316 0.0 0.0 0.00 0.00 0.00 59 1018.5
20260502032505 41 358 3.0 3.0 0.00 0.00 0.00 58 1018.6
20260502032003 41 315 1.0 2.0 0.00 0.00 0.00 60 1018.6
20260502031501 41 330 3.0 3.0 0.00 0.00 0.00 60 1018.6
20260502030958 41 282 3.0 5.0 0.00 0.00 0.00 60 1018.5
20260502030456 41 294 0.0 2.0 0.00 0.00 0.00 62 1018.4
20260502025954 41 291 2.0 3.0 0.00 0.00 0.00 61 1018.3
20260502025451 41 16 1.0 2.0 0.00 0.00 0.00 62 1018.4
20260502024949 41 298 1.0 2.0 0.00 0.00 0.00 64 1018.5
20260502024447 41 301 0.0 0.0 0.00 0.00 0.00 63 1018.4
20260502023945 41 291 0.0 0.0 0.00 0.00 0.00 62 1018.1
20260502023442 41 331 1.0 2.0 0.00 0.00 0.00 63 1018.3
20260502022939 41 328 2.0 3.0 0.00 0.00 0.00 62 1018.4
20260502022435 41 301 0.0 0.0 0.00 0.00 0.00 62 1018.3
20260502021933 41 312 0.0 0.0 0.00 0.00 0.00 63 1018.2
20260502021430 41 352 0.0 2.0 0.00 0.00 0.00 62 1018.2
20260502020927 42 277 2.0 3.0 0.00 0.00 0.00 62 1018.2
20260502020425 42 359 3.0 5.0 0.00 0.00 0.00 62 1018.0
20260502015921 42 299 2.0 3.0 0.00 0.00 0.00 61 1018.2
20260502015419 42 314 3.0 3.0 0.00 0.00 0.00 62 1018.1
20260502014916 42 12 2.0 3.0 0.00 0.00 0.00 62 1018.2
20260502014413 42 315 4.0 6.0 0.00 0.00 0.00 62 1018.3
20260502013909 42 2 1.0 2.0 0.00 0.00 0.00 62 1018.3
20260502013404 42 346 2.0 3.0 0.00 0.00 0.00 63 1018.1
20260502012901 42 339 3.0 5.0 0.00 0.00 0.00 63 1017.9
20260502012359 42 290 4.0 6.0 0.00 0.00 0.00 64 1018.0
20260502011856 42 53 0.0 0.0 0.00 0.00 0.00 65 1018.0
20260502011352 42 350 4.0 6.0 0.00 0.00 0.00 63 1017.9
20260502010849 42 316 3.0 5.0 0.00 0.00 0.00 63 1017.8
20260502010346 43 46 1.0 2.0 0.00 0.00 0.00 63 1017.8
20260502005843 43 295 3.0 5.0 0.00 0.00 0.00 61 1017.7
20260502005341 43 334 2.0 3.0 0.00 0.00 0.00 60 1017.5
20260502004838 44 355 3.0 3.0 0.00 0.00 0.00 59 1017.4
20260502004333 44 328 2.0 3.0 0.00 0.00 0.00 58 1017.5
20260502003832 44 307 1.0 2.0 0.00 0.00 0.00 57 1017.3
20260502003328 44 292 2.0 3.0 0.00 0.00 0.00 55 1017.4
20260502002825 44 292 7.0 7.0 0.00 0.00 0.00 55 1017.2
20260502002322 44 277 6.0 9.0 0.00 0.00 0.00 56 1017.4
20260502001819 44 284 7.0 9.0 0.00 0.00 0.00 54 1017.3
20260502001317 44 285 4.0 5.0 0.00 0.00 0.00 58 1017.2
20260502000815 44 281 4.0 5.0 0.00 0.00 0.00 59 1017.3
20260502000313 44 267 3.0 5.0 0.00 0.00 0.00 59 1017.2
20260501235808 44 341 3.0 5.0 0.00 0.00 0.00 59 1017.1
20260501235305 44 298 1.0 2.0 0.00 0.00 0.00 61 1017.2
20260501234759 44 341 0.0 2.0 0.00 0.00 0.00 62 1017.2
20260501234257 44 285 2.0 3.0 0.00 0.00 0.00 62 1017.1
20260501233756 44 289 2.0 2.0 0.00 0.00 0.00 61 1017.2
20260501233253 44 288 2.0 3.0 0.00 0.00 0.00 63 1017.0
20260501232748 44 291 0.0 0.0 0.00 0.00 0.00 63 1017.1
20260501232245 44 290 1.0 2.0 0.00 0.00 0.00 63 1017.0
20260501231743 44 283 2.0 2.0 0.00 0.00 0.00 63 1017.0
20260501231241 45 284 3.0 5.0 0.00 0.00 0.00 63 1017.1
20260501230739 45 323 2.0 2.0 0.00 0.00 0.00 63 1017.2
20260501230237 45 315 2.0 3.0 0.00 0.00 0.00 62 1017.0
20260501225734 45 303 5.0 6.0 0.00 0.00 0.00 59 1016.9
20260501225232 45 308 4.0 5.0 0.00 0.00 0.00 58 1017.0
20260501224728 45 289 3.0 5.0 0.00 0.00 0.00 61 1016.9
20260501224226 45 273 3.0 5.0 0.00 0.00 0.00 62 1017.1
20260501223721 45 279 2.0 3.0 0.00 0.00 0.00 61 1016.9
20260501223218 45 304 2.0 3.0 0.00 0.00 0.00 62 1016.9
20260501222714 45 348 2.0 2.0 0.00 0.00 0.00 61 1016.9
20260501222211 45 288 3.0 5.0 0.00 0.00 0.00 62 1017.1
20260501221708 45 305 2.0 2.0 0.00 0.00 0.00 62 1016.9
20260501221205 45 4 4.0 5.0 0.00 0.00 0.00 62 1016.9
20260501220703 45 300 3.0 5.0 0.00 0.00 0.00 63 1017.1
20260501220200 45 286 5.0 6.0 0.00 0.00 0.00 62 1016.9
20260501215657 45 291 5.0 7.0 0.00 0.00 0.00 62 1016.8
20260501215152 45 289 2.0 3.0 0.00 0.00 0.00 61 1016.5
20260501214647 45 298 2.0 3.0 0.00 0.00 0.00 60 1016.7
20260501214143 45 286 7.0 9.0 0.00 0.00 0.00 59 1016.7
20260501213640 45 281 5.0 6.0 0.00 0.00 0.00 60 1016.6
20260501213136 45 286 5.0 7.0 0.00 0.00 0.00 59 1016.8
20260501212633 45 310 4.0 6.0 0.00 0.00 0.00 59 1016.7
20260501212129 46 293 9.0 10.0 0.00 0.00 0.00 58 1016.5
20260501211626 46 295 7.0 10.0 0.00 0.00 0.00 59 1016.5
20260501211124 46 280 4.0 5.0 0.00 0.00 0.00 58 1016.6
20260501210620 46 276 6.0 7.0 0.00 0.00 0.00 60 1016.4
20260501210117 46 309 3.0 5.0 0.00 0.00 0.00 60 1016.3
20260501205613 46 313 1.0 3.0 0.00 0.00 0.00 59 1016.4
20260501205111 46 307 3.0 5.0 0.00 0.00 0.00 60 1016.2
20260501204607 46 303 4.0 5.0 0.00 0.00 0.00 60 1016.3
20260501204103 46 329 1.0 3.0 0.00 0.00 0.00 61 1016.3
20260501203600 45 324 1.0 2.0 0.00 0.00 0.00 60 1016.3
20260501203058 45 324 4.0 5.0 0.00 0.00 0.00 59 1016.4
20260501202555 46 344 5.0 5.0 0.00 0.00 0.00 60 1016.3
20260501202051 45 291 3.0 3.0 0.00 0.00 0.00 59 1016.2
20260501201548 46 281 5.0 6.0 0.00 0.00 0.00 59 1016.4
20260501201045 46 311 5.0 7.0 0.00 0.00 0.00 58 1016.5
20260501200542 46 293 7.0 9.0 0.00 0.00 0.00 56 1016.3
20260501200039 46 290 3.0 5.0 0.00 0.00 0.00 57 1016.2
20260501195537 46 349 5.0 6.0 0.00 0.00 0.00 56 1016.2
20260501195032 47 5 5.0 6.0 0.00 0.00 0.00 56 1016.1
20260501194527 47 288 4.0 5.0 0.00 0.00 0.00 56 1016.1
20260501194024 47 21 3.0 5.0 0.00 0.00 0.00 57 1016.3
20260501193521 47 267 2.0 5.0 0.00 0.00 0.00 58 1016.1
20260501193020 47 272 0.0 2.0 0.00 0.00 0.00 59 1016.4
20260501192516 47 307 4.0 7.0 0.00 0.00 0.00 59 1016.3
20260501192014 46 301 0.0 0.0 0.00 0.00 0.00 60 1016.2
20260501191511 47 300 3.0 3.0 0.00 0.00 0.00 59 1016.1
20260501191008 47 278 4.0 9.0 0.00 0.00 0.00 59 1016.4
20260501190503 47 279 4.0 5.0 0.00 0.00 0.00 58 1016.0
20260501185959 46 288 4.0 5.0 0.00 0.00 0.00 59 1016.1
20260501185455 45 283 7.0 9.0 0.00 0.00 0.00 59 1016.2
20260501184951 45 268 3.0 3.0 0.00 0.00 0.00 60 1016.0
20260501184448 46 286 5.0 7.0 0.00 0.00 0.00 59 1016.1
20260501183942 46 356 2.0 3.0 0.00 0.00 0.00 60 1016.0
20260501183440 46 298 2.0 3.0 0.00 0.00 0.00 59 1016.2
20260501182936 47 359 4.0 6.0 0.00 0.00 0.00 59 1016.1
20260501182433 46 335 5.0 6.0 0.00 0.00 0.00 59 1016.0
20260501181930 45 19 4.0 6.0 0.00 0.00 0.00 61 1016.0
20260501181427 45 339 2.0 3.0 0.00 0.00 0.00 62 1016.2
20260501180924 45 309 3.0 3.0 0.00 0.00 0.00 61 1016.0
20260501180421 46 22 3.0 5.0 0.00 0.00 0.00 61 1015.9
20260501175917 46 3 2.0 3.0 0.00 0.00 0.00 59 1016.0
20260501175415 46 307 3.0 5.0 0.00 0.00 0.00 59 1016.0
20260501174911 46 357 4.0 6.0 0.00 0.00 0.00 60 1015.9
20260501174409 47 351 1.0 2.0 0.00 0.00 0.00 61 1016.0
20260501173906 47 297 3.0 5.0 0.00 0.00 0.00 59 1015.8
20260501173404 46 296 5.0 7.0 0.00 0.00 0.00 60 1016.0
20260501172859 46 283 4.0 6.0 0.00 0.00 0.00 61 1015.9
20260501172354 46 22 4.0 5.0 0.00 0.00 0.00 61 1015.9
20260501171850 47 291 6.0 9.0 0.00 0.00 0.00 60 1015.9
20260501171347 46 339 1.0 2.0 0.00 0.00 0.00 61 1015.8
20260501170844 46 351 2.0 3.0 0.00 0.00 0.00 63 1016.1
20260501170341 46 335 2.0 2.0 0.00 0.00 0.00 64 1015.8
20260501165838 46 300 3.0 5.0 0.00 0.00 0.00 63 1015.8
20260501165336 45 313 2.0 2.0 0.00 0.00 0.00 61 1016.1
20260501164834 46 319 1.0 3.0 0.00 0.00 0.00 65 1016.0
20260501164331 45 289 4.0 5.0 0.00 0.00 0.00 68 1016.0
20260501163827 44 280 4.0 5.0 0.00 0.00 0.00 66 1016.2
20260501163324 44 295 1.0 2.0 0.00 0.00 0.00 68 1016.3
20260501162821 44 294 3.0 3.0 0.00 0.00 0.00 67 1016.1
20260501162317 44 12 3.0 3.0 0.00 0.00 0.00 66 1016.1
20260501161814 45 281 4.0 6.0 0.00 0.00 0.00 64 1016.1
20260501161311 45 320 2.0 3.0 0.00 0.00 0.00 65 1016.0
20260501160808 46 281 1.0 3.0 0.00 0.00 0.00 64 1015.7
20260501160304 46 359 3.0 5.0 0.00 0.00 0.00 61 1015.9
20260501155802 46 340 2.0 3.0 0.00 0.00 0.00 61 1016.1
20260501155258 47 350 2.0 3.0 0.00 0.00 0.00 58 1016.1
20260501154755 47 298 0.0 0.0 0.00 0.00 0.00 57 1016.1
20260501154252 46 309 3.0 3.0 0.00 0.00 0.00 60 1015.7
20260501153750 45 305 4.0 5.0 0.00 0.00 0.00 61 1015.8
20260501153247 47 278 7.0 9.0 0.00 0.00 0.00 60 1015.9
20260501152743 47 339 3.0 5.0 0.00 0.00 0.00 62 1015.9
20260501152239 47 294 5.0 7.0 0.00 0.00 0.00 63 1016.0
20260501151732 48 299 4.0 6.0 0.00 0.00 0.00 62 1015.9
20260501151228 48 54 1.0 2.0 0.00 0.00 0.00 63 1016.0
20260501150724 47 299 4.0 5.0 0.00 0.00 0.00 64 1016.0
20260501150220 47 323 2.0 3.0 0.00 0.00 0.00 64 1016.2
20260501145717 46 321 2.0 3.0 0.00 0.00 0.00 65 1015.9
20260501145215 46 297 3.0 5.0 0.00 0.00 0.00 69 1016.1
20260501144711 46 293 2.0 3.0 0.00 0.00 0.00 68 1016.1
20260501144206 45 11 4.0 5.0 0.00 0.00 0.00 67 1016.0
20260501143702 46 11 2.0 3.0 0.00 0.00 0.00 69 1016.0
20260501143200 46 290 4.0 5.0 0.00 0.00 0.00 69 1016.1